Time,TemperatureF,DewpointF,PressureIn,WindDirection,WindDirectionDegrees,WindSpeedMPH,WindSpeedGustMPH,Humidity,HourlyPrecipIn,Conditions,Clouds,dailyrainin,SolarRadiationWatts/m^2,SoftwareType,DateUTC
2013-02-01 06:55:00,0.0,0.0,30.27,NNW,338,2.0,2.0,0,-99.99,,---,-99.99,0.00,VWS V14.01,2013-02-01 12:55:00,
2013-02-01 06:57:00,0.0,0.0,30.27,NNW,338,2.0,2.0,0,-99.99,,---,-99.99,0.00,VWS V14.01,2013-02-01 12:57:00,
2013-02-01 07:05:00,1.2,-25.0,30.27,NNW,338,2.0,2.0,27,-99.99,,---,-99.99,0.00,VWS V14.01,2013-02-01 13:05:00,
2013-02-01 07:08:00,1.2,-25.0,30.27,NNW,338,2.2,2.2,27,-99.99,,---,-99.99,0.00,VWS V14.01,2013-02-01 13:08:00,
2013-02-01 07:15:00,1.2,-25.0,30.27,NNW,338,0.0,0.0,27,-99.99,,---,-99.99,0.00,VWS V14.01,2013-02-01 13:15:00,
2013-02-01 07:20:00,1.2,-25.0,30.27,NNW,338,2.0,2.0,27,-99.99,,---,-99.99,0.00,VWS V14.01,2013-02-01 13:20:00,
2013-02-01 07:26:00,1.2,-25.0,30.27,NNW,338,2.9,2.9,27,-99.99,,---,-99.99,0.00,VWS V14.01,2013-02-01 13:26:00,
2013-02-01 07:32:00,1.2,-25.0,30.27,NNW,338,1.3,2.0,27,-99.99,,---,-99.99,0.00,VWS V14.01,2013-02-01 13:32:00,
2013-02-01 07:38:00,1.0,-25.1,30.27,NW,315,1.3,1.3,27,-99.99,,---,-99.99,0.00,VWS V14.01,2013-02-01 13:38:00,
2013-02-01 07:44:00,1.0,-25.1,30.27,NW,315,2.7,2.7,27,-99.99,,---,-99.99,0.00,VWS V14.01,2013-02-01 13:44:00,
2013-02-01 07:49:00,1.0,-25.1,30.27,WNW,292,2.9,2.9,27,-99.99,,---,-99.99,0.00,VWS V14.01,2013-02-01 13:49:00,
2013-02-01 07:54:00,1.2,-25.0,30.27,WNW,292,2.7,2.7,27,-99.99,,---,-99.99,0.00,VWS V14.01,2013-02-01 13:54:00,
2013-02-01 08:00:00,1.6,-24.6,30.27,WNW,292,2.2,2.2,27,-99.99,,---,-99.99,0.00,VWS V14.01,2013-02-01 14:00:00,
2013-02-01 08:06:00,1.6,-24.6,30.27,WNW,292,2.2,2.2,27,-99.99,,---,-99.99,0.00,VWS V14.01,2013-02-01 14:06:00,
2013-02-01 08:11:00,2.3,-24.0,30.30,WNW,292,2.5,2.5,27,-99.99,,---,-99.99,0.00,VWS V14.01,2013-02-01 14:11:00,
2013-02-01 08:16:00,2.3,-24.0,30.30,WNW,292,2.5,2.5,27,-99.99,,---,-99.99,0.00,VWS V14.01,2013-02-01 14:16:00,
2013-02-01 08:22:00,3.2,-23.2,30.30,WNW,292,2.7,2.7,27,-99.99,,---,-99.99,0.00,VWS V14.01,2013-02-01 14:22:00,
2013-02-01 08:27:00,3.2,-23.2,30.30,WNW,292,2.7,2.9,27,-99.99,,---,-99.99,0.00,VWS V14.01,2013-02-01 14:27:00,
2013-02-01 08:32:00,3.6,-22.9,30.30,West,270,3.1,3.8,27,-99.99,,---,-99.99,0.00,VWS V14.01,2013-02-01 14:32:00,
2013-02-01 08:38:00,4.1,-22.5,30.33,West,270,2.5,3.4,27,-99.99,,---,-99.99,0.00,VWS V14.01,2013-02-01 14:38:00,
2013-02-01 08:43:00,4.5,-22.1,30.33,West,270,2.0,2.5,27,-99.99,,---,-99.99,0.00,VWS V14.01,2013-02-01 14:43:00,
2013-02-01 08:49:00,5.0,-21.7,30.33,West,270,2.9,2.9,27,-99.99,,---,-99.99,0.00,VWS V14.01,2013-02-01 14:49:00,
2013-02-01 08:54:00,5.4,-21.4,30.33,WSW,248,3.8,3.8,27,-99.99,,---,-99.99,0.00,VWS V14.01,2013-02-01 14:54:00,
2013-02-01 09:00:00,5.4,-21.4,30.33,WSW,248,2.7,2.7,27,-99.99,,---,-99.99,0.00,VWS V14.01,2013-02-01 15:00:00,
2013-02-01 09:05:00,5.4,-21.4,30.30,WSW,248,2.7,2.7,27,-99.99,,---,-99.99,0.00,VWS V14.01,2013-02-01 15:05:00,
2013-02-01 09:12:00,6.1,-20.7,30.30,WSW,248,4.3,4.3,27,-99.99,,---,-99.99,0.00,VWS V14.01,2013-02-01 15:12:00,
2013-02-01 09:18:00,6.1,-20.7,30.30,SW,225,3.8,4.3,27,-99.99,,---,-99.99,0.00,VWS V14.01,2013-02-01 15:18:00,
2013-02-01 09:23:00,6.4,-20.4,30.33,SW,225,5.6,5.6,27,-99.99,,---,-99.99,0.00,VWS V14.01,2013-02-01 15:23:00,
2013-02-01 09:28:00,6.8,-20.1,30.33,WSW,248,4.5,4.9,27,-99.99,,---,-99.99,0.00,VWS V14.01,2013-02-01 15:28:00,
2013-02-01 09:34:00,6.8,-20.1,30.33,SSW,202,3.4,3.4,27,-99.99,,---,-99.99,0.00,VWS V14.01,2013-02-01 15:34:00,
2013-02-01 09:40:00,7.2,-19.8,30.33,SSW,202,6.5,7.2,27,-99.99,,---,-99.99,0.00,VWS V14.01,2013-02-01 15:40:00,
2013-02-01 09:45:00,7.2,-19.8,30.33,SSW,202,3.6,3.6,27,-99.99,,---,-99.99,0.00,VWS V14.01,2013-02-01 15:45:00,
2013-02-01 09:51:00,7.7,-19.3,30.33,South,180,6.5,6.7,27,-99.99,,---,-99.99,0.00,VWS V14.01,2013-02-01 15:51:00,
2013-02-01 09:56:00,8.1,-19.0,30.33,SSW,202,4.0,6.3,27,-99.99,,---,-99.99,0.00,VWS V14.01,2013-02-01 15:56:00,
2013-02-01 10:01:00,8.1,-19.0,30.33,South,180,3.1,4.5,27,-99.99,,---,-99.99,0.00,VWS V14.01,2013-02-01 16:01:00,
2013-02-01 10:07:00,8.8,-18.4,30.33,South,180,5.6,8.1,27,-99.99,,---,-99.99,0.00,VWS V14.01,2013-02-01 16:07:00,
2013-02-01 10:13:00,8.8,-18.4,30.33,South,180,4.3,7.4,27,-99.99,,---,-99.99,0.00,VWS V14.01,2013-02-01 16:13:00,
2013-02-01 10:19:00,8.8,-18.4,30.33,South,180,6.5,6.7,27,-99.99,,---,-99.99,0.00,VWS V14.01,2013-02-01 16:19:00,
2013-02-01 10:25:00,9.5,-17.7,30.33,SSW,202,5.8,5.8,27,-99.99,,---,-99.99,0.00,VWS V14.01,2013-02-01 16:25:00,
2013-02-01 10:31:00,10.4,-17.0,30.33,SSW,202,5.8,5.8,27,-99.99,,---,-99.99,0.00,VWS V14.01,2013-02-01 16:31:00,
2013-02-01 10:36:00,10.8,-16.6,30.33,SSE,158,4.9,4.9,27,-99.99,,---,-99.99,0.00,VWS V14.01,2013-02-01 16:36:00,
2013-02-01 10:42:00,10.8,-16.6,30.33,South,180,7.6,7.6,27,-99.99,,---,-99.99,0.00,VWS V14.01,2013-02-01 16:42:00,
2013-02-01 10:48:00,12.6,-15.1,30.33,SSE,158,4.0,4.0,27,-99.99,,---,-99.99,0.00,VWS V14.01,2013-02-01 16:48:00,
2013-02-01 10:53:00,12.7,-14.9,30.33,SSE,158,7.8,7.8,27,-99.99,,---,-99.99,0.00,VWS V14.01,2013-02-01 16:53:00,
2013-02-01 10:59:00,12.7,-14.9,30.33,SSE,158,7.8,7.8,27,-99.99,,---,-99.99,0.00,VWS V14.01,2013-02-01 16:59:00,
2013-02-01 11:04:00,12.9,-14.8,30.33,ESE,112,4.9,6.5,27,-99.99,,---,-99.99,0.00,VWS V14.01,2013-02-01 17:04:00,
2013-02-01 11:09:00,13.6,-14.1,30.33,SE,135,6.5,6.5,27,-99.99,,---,-99.99,0.00,VWS V14.01,2013-02-01 17:09:00,
2013-02-01 11:14:00,13.8,-14.0,30.33,SSE,158,9.8,9.8,27,-99.99,,---,-99.99,0.00,VWS V14.01,2013-02-01 17:14:00,
2013-02-01 11:19:00,13.6,-14.1,30.33,SE,135,7.6,7.6,27,-99.99,,---,-99.99,0.00,VWS V14.01,2013-02-01 17:19:00,
2013-02-01 11:24:00,14.0,-13.8,30.30,SSE,158,6.9,7.8,27,-99.99,,---,-99.99,0.00,VWS V14.01,2013-02-01 17:24:00,
2013-02-01 11:30:00,14.2,-14.4,30.30,South,180,5.6,10.5,26,-99.99,,---,-99.99,0.00,VWS V14.01,2013-02-01 17:30:00,
2013-02-01 11:36:00,14.4,-14.2,30.30,SE,135,8.1,8.5,26,-99.99,,---,-99.99,0.00,VWS V14.01,2013-02-01 17:36:00,
2013-02-01 11:41:00,14.4,-14.2,30.30,SSE,158,7.8,8.1,26,-99.99,,---,-99.99,0.00,VWS V14.01,2013-02-01 17:41:00,
2013-02-01 11:47:00,14.9,-13.8,30.30,ESE,112,4.0,7.8,26,-99.99,,---,-99.99,0.00,VWS V14.01,2013-02-01 17:47:00,
2013-02-01 11:52:00,15.3,-13.5,30.30,SE,135,7.4,7.4,26,-99.99,,---,-99.99,0.00,VWS V14.01,2013-02-01 17:52:00,
2013-02-01 11:57:00,15.3,-13.5,30.27,SSE,158,12.1,12.1,26,-99.99,,---,-99.99,0.00,VWS V14.01,2013-02-01 17:57:00,
2013-02-01 12:02:00,15.3,-13.5,30.27,South,180,5.6,5.6,26,-99.99,,---,-99.99,0.00,VWS V14.01,2013-02-01 18:02:00,
2013-02-01 12:08:00,15.4,-13.3,30.27,South,180,4.9,7.2,26,-99.99,,---,-99.99,0.00,VWS V14.01,2013-02-01 18:08:00,
2013-02-01 12:14:00,16.0,-12.8,30.27,South,180,7.4,8.1,26,-99.99,,---,-99.99,0.00,VWS V14.01,2013-02-01 18:14:00,
2013-02-01 12:19:00,16.5,-12.4,30.27,SSW,202,4.3,6.7,26,-99.99,,---,-99.99,0.00,VWS V14.01,2013-02-01 18:19:00,
2013-02-01 12:24:00,17.1,-11.9,30.27,SSW,202,3.1,4.0,26,-99.99,,---,-99.99,0.00,VWS V14.01,2013-02-01 18:24:00,
2013-02-01 12:30:00,17.1,-11.9,30.27,SSW,202,6.0,19.7,26,-99.99,,---,-99.99,0.00,VWS V14.01,2013-02-01 18:30:00,
2013-02-01 12:36:00,17.1,-11.9,30.27,SSE,158,12.8,12.8,26,-99.99,,---,-99.99,0.00,VWS V14.01,2013-02-01 18:36:00,
2013-02-01 12:42:00,17.4,-11.6,30.27,SSW,202,8.5,8.5,26,-99.99,,---,-99.99,0.00,VWS V14.01,2013-02-01 18:42:00,
2013-02-01 12:47:00,17.4,-11.6,30.27,South,180,8.5,8.5,26,-99.99,,---,-99.99,0.00,VWS V14.01,2013-02-01 18:47:00,
2013-02-01 12:53:00,18.5,-11.4,30.24,SSW,202,12.8,12.8,25,-99.99,,---,-99.99,0.00,VWS V14.01,2013-02-01 18:53:00,
2013-02-01 12:59:00,18.5,-11.4,30.24,South,180,7.8,8.7,25,-99.99,,---,-99.99,0.00,VWS V14.01,2013-02-01 18:59:00,
2013-02-01 13:05:00,19.2,-10.8,30.24,SE,135,7.6,7.6,25,-99.99,,---,-99.99,0.00,VWS V14.01,2013-02-01 19:05:00,
2013-02-01 13:11:00,19.2,-10.8,30.27,East,90,6.3,11.0,25,-99.99,,---,-99.99,0.00,VWS V14.01,2013-02-01 19:11:00,
2013-02-01 13:16:00,19.2,-10.8,30.27,South,180,10.7,12.3,25,-99.99,,---,-99.99,0.00,VWS V14.01,2013-02-01 19:16:00,
2013-02-01 13:21:00,19.2,-10.8,30.27,South,180,10.5,10.5,25,-99.99,,---,-99.99,0.00,VWS V14.01,2013-02-01 19:21:00,
2013-02-01 13:26:00,20.1,-10.1,30.27,SSE,158,11.0,11.0,25,-99.99,,---,-99.99,0.00,VWS V14.01,2013-02-01 19:26:00,
2013-02-01 13:32:00,20.1,-10.1,30.27,South,180,7.4,12.8,25,-99.99,,---,-99.99,0.00,VWS V14.01,2013-02-01 19:32:00,
2013-02-01 13:37:00,20.1,-10.1,30.24,SE,135,10.1,10.1,25,-99.99,,---,-99.99,0.00,VWS V14.01,2013-02-01 19:37:00,
2013-02-01 13:43:00,20.1,-10.1,30.24,South,180,6.0,8.1,25,-99.99,,---,-99.99,0.00,VWS V14.01,2013-02-01 19:43:00,
2013-02-01 13:49:00,19.9,-10.2,30.24,South,180,14.3,14.3,25,-99.99,,---,-99.99,0.00,VWS V14.01,2013-02-01 19:49:00,
2013-02-01 13:55:00,19.6,-10.5,30.21,South,180,6.5,9.8,25,-99.99,,---,-99.99,0.00,VWS V14.01,2013-02-01 19:55:00,
2013-02-01 14:00:00,19.6,-10.5,30.21,SSW,202,9.8,9.8,25,-99.99,,---,-99.99,0.00,VWS V14.01,2013-02-01 20:00:00,
2013-02-01 14:06:00,19.6,-10.5,30.21,South,180,6.5,9.8,25,-99.99,,---,-99.99,0.00,VWS V14.01,2013-02-01 20:06:00,
2013-02-01 14:12:00,19.8,-10.4,30.21,SW,225,10.5,10.5,25,-99.99,,---,-99.99,0.00,VWS V14.01,2013-02-01 20:12:00,
2013-02-01 14:17:00,19.8,-10.4,30.18,South,180,9.8,11.0,25,-99.99,,---,-99.99,0.00,VWS V14.01,2013-02-01 20:17:00,
2013-02-01 14:22:00,20.1,-10.1,30.21,SW,225,10.5,10.5,25,-99.99,,---,-99.99,0.00,VWS V14.01,2013-02-01 20:22:00,
2013-02-01 14:28:00,20.3,-9.9,30.21,SSW,202,6.0,10.3,25,-99.99,,---,-99.99,0.00,VWS V14.01,2013-02-01 20:28:00,
2013-02-01 14:33:00,20.3,-9.9,30.21,SSW,202,7.8,8.7,25,-99.99,,---,-99.99,0.00,VWS V14.01,2013-02-01 20:33:00,
2013-02-01 14:38:00,20.3,-9.9,30.21,South,180,8.7,8.7,25,-99.99,,---,-99.99,0.00,VWS V14.01,2013-02-01 20:38:00,
2013-02-01 14:43:00,20.8,-9.4,30.21,SSW,202,5.6,7.2,25,-99.99,,---,-99.99,0.00,VWS V14.01,2013-02-01 20:43:00,
2013-02-01 14:48:00,20.8,-9.4,30.21,SSW,202,9.8,9.8,25,-99.99,,---,-99.99,0.00,VWS V14.01,2013-02-01 20:48:00,
2013-02-01 14:54:00,21.0,-9.3,30.18,SSW,202,10.3,10.3,25,-99.99,,---,-99.99,0.00,VWS V14.01,2013-02-01 20:54:00,
2013-02-01 15:00:00,21.0,-9.3,30.18,SSW,202,8.7,10.5,25,-99.99,,---,-99.99,0.00,VWS V14.01,2013-02-01 21:00:00,
2013-02-01 15:06:00,21.0,-9.3,30.18,South,180,5.6,5.6,25,-99.99,,---,-99.99,0.00,VWS V14.01,2013-02-01 21:06:00,
2013-02-01 15:12:00,21.0,-9.3,30.15,SSW,202,7.4,9.2,25,-99.99,,---,-99.99,0.00,VWS V14.01,2013-02-01 21:12:00,
2013-02-01 15:17:00,21.0,-9.3,30.15,SSW,202,6.5,6.5,25,-99.99,,---,-99.99,0.00,VWS V14.01,2013-02-01 21:17:00,
2013-02-01 15:22:00,22.3,-8.2,30.15,SSW,202,9.8,11.0,25,-99.99,,---,-99.99,0.00,VWS V14.01,2013-02-01 21:22:00,
2013-02-01 15:27:00,22.3,-8.2,30.15,SW,225,9.8,9.8,25,-99.99,,---,-99.99,0.00,VWS V14.01,2013-02-01 21:27:00,
2013-02-01 15:33:00,22.6,-7.9,30.15,SSW,202,8.7,8.7,25,-99.99,,---,-99.99,0.00,VWS V14.01,2013-02-01 21:33:00,
2013-02-01 15:39:00,22.6,-7.9,30.15,South,180,11.9,11.9,25,-99.99,,---,-99.99,0.00,VWS V14.01,2013-02-01 21:39:00,
2013-02-01 15:45:00,22.5,-8.0,30.15,SE,135,13.6,13.6,25,-99.99,,---,-99.99,0.00,VWS V14.01,2013-02-01 21:45:00,
2013-02-01 15:51:00,22.3,-8.2,30.15,SSW,202,8.5,8.5,25,-99.99,,---,-99.99,0.00,VWS V14.01,2013-02-01 21:51:00,
2013-02-01 15:57:00,22.5,-8.0,30.15,South,180,10.3,10.3,25,-99.99,,---,-99.99,0.00,VWS V14.01,2013-02-01 21:57:00,
2013-02-01 16:02:00,22.5,-8.0,30.15,SSE,158,6.5,8.7,25,-99.99,,---,-99.99,0.00,VWS V14.01,2013-02-01 22:02:00,
2013-02-01 16:07:00,22.6,-7.9,30.12,South,180,5.8,9.6,25,-99.99,,---,-99.99,0.00,VWS V14.01,2013-02-01 22:07:00,
2013-02-01 16:22:00,23.0,-7.6,30.12,South,180,7.8,7.8,25,-99.99,,---,-99.99,0.00,VWS V14.01,2013-02-01 22:22:00,
2013-02-01 16:28:00,23.0,-7.6,30.12,SSW,202,5.8,8.7,25,-99.99,,---,-99.99,0.00,VWS V14.01,2013-02-01 22:28:00,
2013-02-01 16:33:00,23.4,-8.1,30.12,South,180,6.3,6.7,24,-99.99,,---,-99.99,0.00,VWS V14.01,2013-02-01 22:33:00,
2013-02-01 16:38:00,23.4,-8.1,30.12,SSW,202,7.8,7.8,24,-99.99,,---,-99.99,0.00,VWS V14.01,2013-02-01 22:38:00,
2013-02-01 16:44:00,23.7,-7.8,30.12,South,180,4.7,4.7,24,-99.99,,---,-99.99,0.00,VWS V14.01,2013-02-01 22:44:00,
2013-02-01 16:50:00,23.9,-7.6,30.12,SSW,202,10.5,11.9,24,-99.99,,---,-99.99,0.00,VWS V14.01,2013-02-01 22:50:00,
2013-02-01 16:55:00,23.9,-7.6,30.09,SSW,202,8.1,8.1,24,-99.99,,---,-99.99,0.00,VWS V14.01,2013-02-01 22:55:00,
2013-02-01 17:01:00,24.1,-7.5,30.09,SSW,202,8.7,13.0,24,-99.99,,---,-99.99,0.00,VWS V14.01,2013-02-01 23:01:00,
2013-02-01 17:07:00,24.1,-7.5,30.06,SSW,202,9.4,9.4,24,-99.99,,---,-99.99,0.00,VWS V14.01,2013-02-01 23:07:00,
2013-02-01 17:12:00,24.1,-7.5,30.06,SW,225,6.7,7.6,24,-99.99,,---,-99.99,0.00,VWS V14.01,2013-02-01 23:12:00,
2013-02-01 17:18:00,24.1,-7.5,30.06,SSW,202,5.6,8.1,24,-99.99,,---,-99.99,0.00,VWS V14.01,2013-02-01 23:18:00,
2013-02-01 17:24:00,24.1,-7.5,30.06,South,180,5.4,5.4,24,-99.99,,---,-99.99,0.00,VWS V14.01,2013-02-01 23:24:00,
2013-02-01 17:30:00,24.1,-7.5,30.09,South,180,8.5,8.5,24,-99.99,,---,-99.99,0.00,VWS V14.01,2013-02-01 23:30:00,
2013-02-01 17:35:00,24.1,-7.5,30.09,SSW,202,4.9,8.7,24,-99.99,,---,-99.99,0.00,VWS V14.01,2013-02-01 23:35:00,
2013-02-01 17:40:00,23.9,-7.6,30.09,SSW,202,4.9,4.9,24,-99.99,,---,-99.99,0.00,VWS V14.01,2013-02-01 23:40:00,
2013-02-01 17:46:00,23.7,-7.8,30.09,SW,225,5.8,7.2,24,-99.99,,---,-99.99,0.00,VWS V14.01,2013-02-01 23:46:00,
2013-02-01 17:51:00,23.5,-7.9,30.09,South,180,7.2,7.6,24,-99.99,,---,-99.99,0.00,VWS V14.01,2013-02-01 23:51:00,
2013-02-01 17:57:00,23.5,-7.9,30.09,South,180,6.0,8.5,24,-99.99,,---,-99.99,0.00,VWS V14.01,2013-02-01 23:57:00,
2013-02-01 18:03:00,23.5,-7.9,30.09,SSW,202,11.0,11.0,24,-99.99,,---,-99.99,0.00,VWS V14.01,2013-02-02 00:03:00,
2013-02-01 18:08:00,23.4,-8.1,30.06,South,180,7.8,7.8,24,-99.99,,---,-99.99,0.00,VWS V14.01,2013-02-02 00:08:00,
2013-02-01 18:13:00,23.0,-7.6,30.06,South,180,7.8,7.8,25,-99.99,,---,-99.99,0.00,VWS V14.01,2013-02-02 00:13:00,
2013-02-01 18:19:00,22.8,-7.7,30.06,South,180,4.7,4.7,25,-99.99,,---,-99.99,0.00,VWS V14.01,2013-02-02 00:19:00,
2013-02-01 18:24:00,22.8,-7.7,30.03,SSW,202,10.7,10.7,25,-99.99,,---,-99.99,0.00,VWS V14.01,2013-02-02 00:24:00,
2013-02-01 18:30:00,22.8,-7.7,30.03,SSW,202,7.2,7.2,25,-99.99,,---,-99.99,0.00,VWS V14.01,2013-02-02 00:30:00,
2013-02-01 18:36:00,22.8,-7.7,30.03,South,180,5.4,7.6,25,-99.99,,---,-99.99,0.00,VWS V14.01,2013-02-02 00:36:00,
2013-02-01 18:41:00,22.6,-7.9,30.03,South,180,6.7,6.7,25,-99.99,,---,-99.99,0.00,VWS V14.01,2013-02-02 00:41:00,
2013-02-01 18:46:00,22.6,-7.9,30.03,South,180,3.1,6.0,25,-99.99,,---,-99.99,0.00,VWS V14.01,2013-02-02 00:46:00,
2013-02-01 18:53:00,22.6,-7.9,30.03,SSW,202,2.9,2.9,25,-99.99,,---,-99.99,0.00,VWS V14.01,2013-02-02 00:53:00,
2013-02-01 18:58:00,22.6,-7.9,30.06,South,180,3.4,3.4,25,-99.99,,---,-99.99,0.00,VWS V14.01,2013-02-02 00:58:00,
2013-02-01 19:03:00,22.5,-8.0,30.06,SSW,202,4.7,4.7,25,-99.99,,---,-99.99,0.00,VWS V14.01,2013-02-02 01:03:00,
2013-02-01 19:08:00,22.5,-8.0,30.06,South,180,5.8,5.8,25,-99.99,,---,-99.99,0.00,VWS V14.01,2013-02-02 01:08:00,
2013-02-01 19:14:00,22.5,-8.0,30.06,South,180,3.4,4.0,25,-99.99,,---,-99.99,0.00,VWS V14.01,2013-02-02 01:14:00,
2013-02-01 19:20:00,22.5,-8.0,30.06,SSW,202,6.3,6.3,25,-99.99,,---,-99.99,0.00,VWS V14.01,2013-02-02 01:20:00,
2013-02-01 19:25:00,22.5,-8.0,30.03,SSW,202,3.8,4.0,25,-99.99,,---,-99.99,0.00,VWS V14.01,2013-02-02 01:25:00,
2013-02-01 19:30:00,22.5,-8.0,30.03,SSW,202,4.0,6.5,25,-99.99,,---,-99.99,0.00,VWS V14.01,2013-02-02 01:30:00,
2013-02-01 19:36:00,22.5,-8.0,30.06,SSW,202,4.9,4.9,25,-99.99,,---,-99.99,0.00,VWS V14.01,2013-02-02 01:36:00,
2013-02-01 19:41:00,22.5,-8.0,30.06,WSW,248,4.3,4.3,25,-99.99,,---,-99.99,0.00,VWS V14.01,2013-02-02 01:41:00,
2013-02-01 19:47:00,22.5,-8.0,30.06,SSW,202,3.8,3.8,25,-99.99,,---,-99.99,0.00,VWS V14.01,2013-02-02 01:47:00,
2013-02-01 19:52:00,22.5,-8.0,30.06,SSW,202,3.1,544.2,25,-99.99,,---,-99.99,0.00,VWS V14.01,2013-02-02 01:52:00,
2013-02-01 19:57:00,22.3,-8.2,30.09,SSW,202,3.4,3.4,25,-99.99,,---,-99.99,0.00,VWS V14.01,2013-02-02 01:57:00,
2013-02-01 20:02:00,22.5,-8.0,30.09,SSW,202,3.4,3.4,25,-99.99,,---,-99.99,0.00,VWS V14.01,2013-02-02 02:02:00,
2013-02-01 20:07:00,22.3,-8.2,30.09,South,180,3.4,3.4,25,-99.99,,---,-99.99,0.00,VWS V14.01,2013-02-02 02:07:00,
2013-02-01 20:13:00,22.3,-8.2,30.09,SSW,202,2.0,2.0,25,-99.99,,---,-99.99,0.00,VWS V14.01,2013-02-02 02:13:00,
2013-02-01 20:19:00,22.3,-8.2,30.09,South,180,2.9,2.9,25,-99.99,,---,-99.99,0.00,VWS V14.01,2013-02-02 02:19:00,
2013-02-01 20:25:00,22.1,-8.3,30.09,South,180,2.9,2.9,25,-99.99,,---,-99.99,0.00,VWS V14.01,2013-02-02 02:25:00,
2013-02-01 20:30:00,22.1,-6.8,30.09,SSW,202,3.8,3.8,27,-99.99,,---,-99.99,0.00,VWS V14.01,2013-02-02 02:30:00,
2013-02-01 20:35:00,21.9,-6.9,30.09,SSW,202,3.1,5.4,27,-99.99,,---,-99.99,0.00,VWS V14.01,2013-02-02 02:35:00,
2013-02-01 20:41:00,21.9,-6.9,30.06,South,180,4.0,4.0,27,-99.99,,---,-99.99,0.00,VWS V14.01,2013-02-02 02:41:00,
2013-02-01 20:46:00,21.9,-6.9,30.06,SSW,202,4.9,4.9,27,-99.99,,---,-99.99,0.00,VWS V14.01,2013-02-02 02:46:00,
2013-02-01 20:52:00,22.1,-6.8,30.06,South,180,4.3,4.3,27,-99.99,,---,-99.99,0.00,VWS V14.01,2013-02-02 02:52:00,
2013-02-01 20:58:00,22.1,-6.8,30.03,South,180,6.0,6.0,27,-99.99,,---,-99.99,0.00,VWS V14.01,2013-02-02 02:58:00,
2013-02-01 21:04:00,22.1,-6.8,30.03,South,180,7.4,7.4,27,-99.99,,---,-99.99,0.00,VWS V14.01,2013-02-02 03:04:00,
2013-02-01 21:09:00,22.1,-6.8,30.03,SSW,202,5.8,5.8,27,-99.99,,---,-99.99,0.00,VWS V14.01,2013-02-02 03:09:00,
2013-02-01 21:14:00,22.3,-6.6,30.03,SSW,202,5.6,5.6,27,-99.99,,---,-99.99,0.00,VWS V14.01,2013-02-02 03:14:00,